Radiation Dose at Monitoring Post of Fukushima Daini Nuclear Power Station
Date,Time,MP-1(microSv/h),MP-2(microSv/h),MP-3(microSv/h),MP-4(microSv/h),MP-5(microSv/h),MP-6(microSv/h),MP-7(microSv/h),Wind Direction,Wind Velocity(m/s),Rain
2018/11/22,00:00,0.313,0.193,0.308,0.296,0.282,0.156,0.095,north-northeast,2.4,No
2018/11/22,00:10,0.313,0.193,0.309,0.296,0.282,0.156,0.095,north-northeast,2.4,No
2018/11/22,00:20,0.314,0.192,0.307,0.298,0.280,0.156,0.095,north,4.0,No
2018/11/22,00:30,0.311,0.194,0.308,0.296,0.281,0.156,0.096,north,3.7,No
2018/11/22,00:40,0.314,0.193,0.309,0.295,0.280,0.156,0.096,north-northwest,4.6,No
2018/11/22,00:50,0.313,0.192,0.309,0.296,0.281,0.156,0.095,north-northwest,5.8,No
2018/11/22,01:00,0.313,0.194,0.309,0.296,0.280,0.156,0.096,north-northwest,5.2,No
2018/11/22,01:10,0.314,0.194,0.309,0.296,0.281,0.156,0.096,north,4.4,No
2018/11/22,01:20,0.313,0.193,0.307,0.297,0.280,0.156,0.096,north-northwest,4.1,No
2018/11/22,01:30,0.314,0.193,0.308,0.296,0.282,0.156,0.095,north-northwest,4.8,No
2018/11/22,01:40,0.314,0.194,0.308,0.296,0.280,0.156,0.096,northwest,4.3,No
2018/11/22,01:50,0.313,0.193,0.307,0.296,0.280,0.156,0.096,northwest,4.1,Yes
2018/11/22,02:00,0.313,0.194,0.307,0.296,0.281,0.156,0.095,north-northwest,4.5,Yes
2018/11/22,02:10,0.314,0.193,0.309,0.295,0.281,0.156,0.095,north-northwest,5.1,No
2018/11/22,02:20,0.313,0.193,0.307,0.297,0.282,0.156,0.095,north-northwest,5.4,No
2018/11/22,02:30,0.313,0.194,0.308,0.295,0.279,0.156,0.095,northwest,5.4,No
2018/11/22,02:40,0.315,0.193,0.308,0.298,0.281,0.155,0.095,northwest,5.1,No
2018/11/22,02:50,0.312,0.193,0.308,0.296,0.282,0.156,0.096,north-northwest,3.5,Yes
2018/11/22,03:00,0.314,0.194,0.309,0.296,0.281,0.157,0.096,east,7.1,Yes
2018/11/22,03:10,0.317,0.196,0.310,0.299,0.285,0.161,0.100,north,5.4,Yes
2018/11/22,03:20,0.317,0.199,0.312,0.301,0.284,0.163,0.103,west-northwest,6.0,Yes
2018/11/22,03:30,0.318,0.200,0.313,0.300,0.285,0.164,0.104,northwest,4.4,Yes
2018/11/22,03:40,0.320,0.199,0.312,0.301,0.288,0.164,0.103,northwest,4.2,Yes
2018/11/22,03:50,0.317,0.199,0.312,0.301,0.285,0.164,0.105,northwest,4.3,Yes
2018/11/22,04:00,0.319,0.200,0.312,0.299,0.286,0.164,0.104,northwest,4.3,Yes
2018/11/22,04:10,0.317,0.199,0.310,0.299,0.285,0.164,0.103,north-northwest,6.4,Yes
2018/11/22,04:20,0.315,0.198,0.308,0.300,0.285,0.164,0.103,northwest,6.3,Yes
2018/11/22,04:30,0.316,0.198,0.310,0.298,0.286,0.163,0.102,northwest,6.4,Yes
2018/11/22,04:40,0.316,0.196,0.308,0.299,0.283,0.161,0.102,northwest,6.6,Yes
2018/11/22,04:50,0.314,0.198,0.308,0.298,0.283,0.162,0.102,northwest,5.8,Yes
2018/11/22,05:00,0.317,0.198,0.308,0.297,0.285,0.162,0.102,northwest,5.5,Yes
2018/11/22,05:10,0.317,0.199,0.310,0.297,0.285,0.161,0.102,northwest,5.9,Yes
2018/11/22,05:20,0.316,0.201,0.309,0.299,0.287,0.163,0.104,north-northwest,5.9,Yes
2018/11/22,05:30,0.318,0.201,0.312,0.301,0.288,0.165,0.107,northwest,5.4,Yes
2018/11/22,05:40,0.320,0.202,0.313,0.302,0.288,0.166,0.107,northwest,4.3,Yes
2018/11/22,05:50,0.319,0.202,0.310,0.302,0.291,0.166,0.106,northwest,5.0,Yes
2018/11/22,06:00,0.318,0.201,0.311,0.301,0.288,0.166,0.106,north-northwest,4.9,Yes
2018/11/22,06:10,0.318,0.200,0.309,0.301,0.287,0.163,0.104,north-northwest,4.6,Yes
2018/11/22,06:20,0.317,0.199,0.307,0.298,0.287,0.162,0.103,north-northwest,4.5,No
2018/11/22,06:30,0.314,0.197,0.307,0.296,0.284,0.160,0.101,north-northwest,4.7,No
2018/11/22,06:40,0.310,0.195,0.306,0.296,0.283,0.160,0.099,northwest,4.7,No
2018/11/22,06:50,0.311,0.195,0.303,0.293,0.281,0.158,0.098,north-northwest,4.1,No
2018/11/22,07:00,0.311,0.192,0.304,0.292,0.280,0.157,0.097,north-northwest,3.7,No
2018/11/22,07:10,0.307,0.192,0.302,0.291,0.281,0.155,0.097,northwest,3.6,Yes
2018/11/22,07:20,0.307,0.192,0.301,0.291,0.278,0.153,0.097,northwest,4.0,No
2018/11/22,07:30,0.308,0.191,0.301,0.289,0.279,0.154,0.096,north-northwest,3.4,No
2018/11/22,07:40,0.306,0.190,0.300,0.290,0.278,0.154,0.095,north-northwest,1.8,No
2018/11/22,07:50,0.308,0.191,0.299,0.289,0.279,0.153,0.095,north-northwest,1.6,No
2018/11/22,08:00,0.307,0.189,0.301,0.289,0.279,0.152,0.095,north-northwest,2.6,No
2018/11/22,08:10,0.307,0.191,0.300,0.289,0.277,0.153,0.094,north-northwest,3.5,Yes
2018/11/22,08:20,0.308,0.190,0.300,0.288,0.278,0.152,0.094,north-northwest,3.3,Yes
2018/11/22,08:30,0.306,0.188,0.301,0.290,0.278,0.153,0.094,north-northwest,3.2,Yes
2018/11/22,08:40,0.305,0.190,0.300,0.290,0.277,0.153,0.094,north,3.1,No
2018/11/22,08:50,0.307,0.189,0.300,0.288,0.279,0.152,0.094,north-northwest,3.2,No
2018/11/22,09:00,0.305,0.189,0.299,0.289,0.277,0.152,0.094,north-northwest,4.6,No
2018/11/22,09:10,0.308,0.190,0.300,0.290,0.279,0.151,0.094,-,CALM,No
2018/11/22,09:20,0.305,0.189,0.300,0.289,0.277,0.152,0.094,north-northwest,1.7,No
2018/11/22,09:30,0.309,0.191,0.298,0.290,0.278,0.151,0.094,north-northwest,4.3,No
2018/11/22,09:40,0.306,0.190,0.300,0.288,0.279,0.152,0.094,north-northwest,4.9,No
2018/11/22,09:50,0.306,0.188,0.299,0.290,0.277,0.153,0.094,north-northwest,4.6,No
2018/11/22,10:00,0.307,0.190,0.300,0.288,0.280,0.152,0.094,north-northwest,2.7,No
2018/11/22,10:10,0.305,0.189,0.301,0.289,0.278,0.152,0.094,north-northwest,3.4,No
2018/11/22,10:20,0.308,0.190,0.299,0.290,0.278,0.153,0.093,north-northwest,3.7,No
2018/11/22,10:30,0.308,0.190,0.299,0.289,0.278,0.153,0.093,north-northwest,4.0,No
2018/11/22,10:40,0.305,0.189,0.300,0.288,0.278,0.151,0.094,north,4.4,No
2018/11/22,10:50,0.307,0.190,0.299,0.290,0.281,0.152,0.093,north-northwest,5.2,No
2018/11/22,11:00,0.306,0.189,0.302,0.287,0.278,0.153,0.094,north-northwest,5.9,No
2018/11/22,11:10,0.308,0.190,0.299,0.291,0.279,0.152,0.094,north-northwest,6.3,No
2018/11/22,11:20,0.307,0.190,0.301,0.289,0.278,0.152,0.093,north-northwest,6.2,No
2018/11/22,11:30,0.307,0.191,0.302,0.289,0.279,0.153,0.094,north-northwest,6.2,No
2018/11/22,11:40,0.307,0.190,0.302,0.289,0.280,0.153,0.094,north-northwest,6.1,No
2018/11/22,11:50,0.306,0.190,0.302,0.289,0.278,0.153,0.094,north-northwest,6.0,No
2018/11/22,12:00,0.309,0.190,0.300,0.290,0.281,0.153,0.094,north-northwest,6.7,No
2018/11/22,12:10,0.307,0.191,0.301,0.290,0.279,0.153,0.094,north-northwest,6.7,No
2018/11/22,12:20,0.308,0.191,0.302,0.290,0.278,0.152,0.094,north-northwest,5.8,No
2018/11/22,12:30,0.308,0.189,0.301,0.290,0.280,0.153,0.094,north-northwest,6.7,No
2018/11/22,12:40,0.308,0.191,0.301,0.290,0.277,0.153,0.094,north-northwest,6.7,No
2018/11/22,12:50,0.309,0.191,0.301,0.290,0.281,0.153,0.094,north-northwest,5.4,No
2018/11/22,13:00,0.308,0.191,0.301,0.290,0.279,0.153,0.094,north-northwest,5.0,No
2018/11/22,13:10,0.308,0.190,0.302,0.290,0.279,0.153,0.094,north-northwest,3.2,No
2018/11/22,13:20,0.308,0.191,0.302,0.290,0.280,0.153,0.094,north-northwest,1.3,No
2018/11/22,13:30,0.309,0.191,0.300,0.291,0.279,0.154,0.095,north-northwest,1.2,No
2018/11/22,13:40,0.307,0.191,0.302,0.291,0.281,0.154,0.094,north-northwest,1.7,No
2018/11/22,13:50,0.307,0.191,0.301,0.290,0.277,0.153,0.094,northwest,2.4,No
2018/11/22,14:00,0.308,0.191,0.303,0.291,0.280,0.152,0.094,north-northwest,3.8,No
2018/11/22,14:10,0.308,0.190,0.301,0.290,0.278,0.153,0.095,west-northwest,2.2,No
2018/11/22,14:20,0.307,0.192,0.301,0.289,0.280,0.153,0.095,west,1.1,No
2018/11/22,14:30,0.309,0.190,0.303,0.291,0.279,0.153,0.095,north,1.7,No
2018/11/22,14:40,0.306,0.190,0.301,0.290,0.280,0.154,0.094,north-northeast,1.5,No
2018/11/22,14:50,0.309,0.191,0.303,0.291,0.278,0.154,0.095,north,2.0,No
2018/11/22,15:00,0.307,0.191,0.299,0.291,0.278,0.153,0.095,north-northwest,2.4,No
2018/11/22,15:10,0.308,0.191,0.302,0.291,0.281,0.154,0.094,north-northwest,2.9,No
2018/11/22,15:20,0.309,0.190,0.301,0.290,0.278,0.153,0.094,northwest,2.5,No
2018/11/22,15:30,0.309,0.190,0.300,0.289,0.280,0.153,0.094,north-northwest,1.4,No
2018/11/22,15:40,0.308,0.190,0.301,0.291,0.279,0.153,0.094,north,2.3,No
2018/11/22,15:50,0.306,0.189,0.301,0.290,0.281,0.153,0.095,north-northeast,1.3,No
2018/11/22,16:00,0.308,0.191,0.303,0.290,0.278,0.153,0.094,north,1.7,No
2018/11/22,16:10,0.307,0.190,0.301,0.289,0.278,0.152,0.093,northwest,2.8,No
2018/11/22,16:20,0.307,0.191,0.300,0.290,0.279,0.152,0.094,north-northwest,4.9,No
2018/11/22,16:30,0.309,0.191,0.301,0.290,0.277,0.154,0.093,north-northwest,3.3,No
2018/11/22,16:40,0.307,0.190,0.301,0.290,0.281,0.153,0.093,north-northwest,4.0,No
2018/11/22,16:50,0.307,0.191,0.301,0.290,0.279,0.152,0.094,north-northwest,4.0,No
2018/11/22,17:00,0.308,0.190,0.302,0.291,0.279,0.154,0.094,northwest,4.3,No
2018/11/22,17:10,0.307,0.189,0.302,0.290,0.280,0.154,0.093,northwest,4.0,No
2018/11/22,17:20,0.307,0.191,0.301,0.289,0.278,0.153,0.094,west-northwest,4.0,No
2018/11/22,17:30,0.307,0.189,0.301,0.291,0.279,0.152,0.093,west-northwest,2.6,No
2018/11/22,17:40,0.306,0.189,0.299,0.290,0.278,0.152,0.093,northwest,4.0,No
2018/11/22,17:50,0.307,0.191,0.301,0.289,0.277,0.152,0.094,north-northwest,3.1,No
2018/11/22,18:00,0.306,0.190,0.300,0.290,0.278,0.154,0.094,northwest,4.3,No
2018/11/22,18:10,0.307,0.190,0.299,0.289,0.276,0.153,0.093,west-northwest,7.7,No
2018/11/22,18:20,0.309,0.189,0.301,0.291,0.278,0.151,0.093,west-northwest,10.0,No
2018/11/22,18:30,0.306,0.189,0.300,0.290,0.277,0.153,0.093,west-northwest,9.8,No
2018/11/22,18:40,0.308,0.190,0.300,0.289,0.277,0.152,0.093,west,10.9,No
2018/11/22,18:50,0.307,0.189,0.300,0.291,0.279,0.154,0.092,west-northwest,10.7,No
2018/11/22,19:00,0.307,0.188,0.300,0.291,0.278,0.154,0.093,northwest,7.3,No
2018/11/22,19:10,0.308,0.191,0.302,0.289,0.278,0.152,0.093,north-northwest,6.3,No
2018/11/22,19:20,0.310,0.188,0.303,0.290,0.279,0.152,0.093,north-northwest,5.6,No
2018/11/22,19:30,0.308,0.190,0.300,0.289,0.278,0.152,0.093,north-northwest,7.8,No
2018/11/22,19:40,0.308,0.190,0.300,0.290,0.278,0.152,0.094,north-northwest,8.3,No
2018/11/22,19:50,0.308,0.190,0.302,0.291,0.278,0.153,0.093,north-northwest,8.5,No
2018/11/22,20:00,0.309,0.189,0.302,0.290,0.278,0.152,0.093,north-northwest,9.0,No
2018/11/22,20:10,0.308,0.190,0.302,0.290,0.278,0.153,0.093,north-northwest,7.4,No
2018/11/22,20:20,0.310,0.190,0.303,0.290,0.279,0.153,0.093,north-northwest,6.9,No
2018/11/22,20:30,0.309,0.189,0.302,0.291,0.279,0.152,0.093,north-northwest,6.1,No
2018/11/22,20:40,0.310,0.191,0.302,0.290,0.278,0.153,0.093,north-northwest,5.8,No
2018/11/22,20:50,0.309,0.191,0.303,0.290,0.279,0.153,0.094,north-northwest,5.2,No
2018/11/22,21:00,0.309,0.189,0.301,0.291,0.278,0.154,0.093,north-northwest,4.7,No
2018/11/22,21:10,0.310,0.192,0.303,0.291,0.278,0.153,0.093,north-northwest,4.3,No
2018/11/22,21:20,0.309,0.191,0.303,0.289,0.278,0.153,0.094,north-northwest,4.2,No
2018/11/22,21:30,0.308,0.190,0.303,0.290,0.279,0.153,0.093,north-northwest,4.9,No
2018/11/22,21:40,0.309,0.191,0.302,0.291,0.278,0.153,0.094,northwest,4.5,No
2018/11/22,21:50,0.310,0.190,0.302,0.290,0.278,0.153,0.093,northwest,4.8,No
2018/11/22,22:00,0.309,0.191,0.303,0.290,0.279,0.153,0.094,northwest,4.8,No
2018/11/22,22:10,0.308,0.190,0.302,0.291,0.278,0.154,0.094,north-northwest,4.3,No
2018/11/22,22:20,0.309,0.189,0.301,0.291,0.279,0.153,0.094,north-northwest,5.8,No
2018/11/22,22:30,0.309,0.192,0.302,0.290,0.280,0.153,0.094,north-northwest,5.8,No
2018/11/22,22:40,0.308,0.189,0.302,0.291,0.277,0.153,0.094,north-northwest,6.1,No
2018/11/22,22:50,0.309,0.189,0.302,0.290,0.278,0.152,0.093,northwest,8.1,No
2018/11/22,23:00,0.310,0.190,0.302,0.291,0.278,0.152,0.094,northwest,9.3,No
2018/11/22,23:10,0.309,0.189,0.302,0.291,0.278,0.152,0.093,northwest,7.5,No
2018/11/22,23:20,0.310,0.190,0.302,0.289,0.278,0.154,0.094,northwest,7.5,No
2018/11/22,23:30,0.310,0.191,0.302,0.292,0.280,0.153,0.094,northwest,7.5,No
2018/11/22,23:40,0.309,0.190,0.303,0.290,0.278,0.153,0.093,northwest,8.7,No
2018/11/22,23:50,0.309,0.190,0.303,0.292,0.278,0.152,0.093,northwest,8.3,No
